Date String (YYYY-MM-DD hh:mm:ss) UTC,Instrument flags,Ambient pressure (hPa),Sample flow (lpm),Bypass flow (lpm),Sample temperature (°C),Ambient temperature (°C),ASC tube jacket temperature (°C),LED temperature (°C),Box temperature (°C),Sample RH (%),Span deviation,Mass concentration (μg/m³),Mass concentration (μg/m³),Mass concentration (μg/m³)
DateTimeUTC,F1_M11,P_M11,Q1_M11,Q2_M11,T1_M11,T2_M11,T3_M11,T4_M11,T5_M11,U1_M11,ZSPAN_M11,X2_M11,X0_M11,X1_M11
2022-12-11 13:00:00,,0821.3,4.98,0.00,21.8,20.2,00.0,30.7,23.6,08.8,0000.0,0004.47,0009.64,0003.87
2022-12-11 13:01:00,,0821.2,5.03,0.00,21.8,20.0,00.0,30.7,23.5,08.5,0000.0,0004.65,0009.98,0004.01
2022-12-11 13:02:00,,0821.3,4.97,0.00,21.8,20.0,00.0,30.7,23.5,07.3,0000.0,0004.65,0009.97,0004.04
2022-12-11 13:03:00,,0821.3,5.03,0.00,21.8,20.1,00.0,30.7,23.5,07.5,0000.0,0004.60,0009.84,0004.04
2022-12-11 13:04:00,,0821.2,4.98,0.00,21.8,20.2,00.0,30.7,23.6,07.4,0000.0,0004.63,0010.17,0004.05
2022-12-11 13:05:00,,0821.3,4.99,0.00,21.8,20.2,00.0,30.7,23.6,07.6,0000.0,0004.60,0010.03,0004.04
2022-12-11 13:06:00,,0821.4,5.02,0.00,21.8,20.2,00.0,30.6,23.6,08.2,0000.0,0004.66,0009.75,0004.11
2022-12-11 13:07:00,,0821.4,4.98,0.00,21.8,20.2,00.0,30.6,23.6,08.1,0000.0,0004.68,0009.64,0004.16
2022-12-11 13:08:00,,0821.4,5.03,0.00,21.8,20.1,00.0,30.6,23.5,08.3,0000.0,0004.70,0009.62,0004.18
2022-12-11 13:09:00,,0821.4,4.99,0.00,21.7,20.0,00.0,30.6,23.5,08.3,0000.0,0004.71,0009.20,0004.17
2022-12-11 13:10:00,,0821.4,5.00,0.00,21.7,19.9,00.0,30.6,23.4,08.2,0000.0,0004.71,0009.09,0004.16
2022-12-11 13:11:00,,0821.3,5.01,0.00,21.7,19.9,00.0,30.6,23.4,07.4,0000.0,0004.52,0008.84,0003.99
2022-12-11 13:12:00,,0821.3,4.99,0.00,21.6,19.9,00.0,30.6,23.4,07.5,0000.0,0004.30,0008.37,0003.81
2022-12-11 13:13:00,,0821.3,5.01,0.00,21.6,19.9,00.0,30.5,23.4,07.3,0000.0,0004.30,0008.66,0003.79
2022-12-11 13:14:00,,0821.3,4.98,0.00,21.6,20.2,00.0,30.5,23.4,07.0,0000.0,0004.26,0008.77,0003.74
2022-12-11 13:15:00,,0821.4,5.00,0.00,21.7,21.3,00.0,30.5,23.7,06.8,0000.0,0004.18,0008.25,0003.67
2022-12-11 13:16:00,,0821.4,5.01,0.00,21.8,22.1,00.0,30.6,23.9,06.7,0000.0,0004.09,0008.04,0003.59
2022-12-11 13:17:00,,0821.3,5.01,0.00,21.9,21.9,00.0,30.6,23.9,06.7,0000.0,0003.93,0007.48,0003.45
2022-12-11 13:18:00,,0821.3,4.99,0.00,21.9,21.5,00.0,30.6,23.9,06.6,0000.0,0003.75,0007.17,0003.29
2022-12-11 13:19:00,,0821.3,4.99,0.00,21.9,21.1,00.0,30.7,23.8,06.5,0000.0,0003.55,0006.85,0003.08
2022-12-11 13:20:00,,0821.3,5.00,0.00,21.9,20.8,00.0,30.7,23.7,06.5,0000.0,0003.32,0006.66,0002.74
2022-12-11 13:21:00,,0821.3,5.03,0.00,21.9,20.6,00.0,30.7,23.7,06.5,0000.0,0003.02,0006.03,0002.38
2022-12-11 13:22:00,,0821.3,4.98,0.00,21.9,20.5,00.0,30.7,23.7,06.5,0000.0,0002.79,0005.67,0002.19
2022-12-11 13:23:00,,0821.3,4.98,0.00,21.9,20.3,00.0,30.7,23.6,06.6,0000.0,0002.61,0005.39,0002.06
2022-12-11 13:24:00,,0821.3,5.02,0.00,21.8,20.2,00.0,30.7,23.6,06.7,0000.0,0002.46,0004.99,0001.92
2022-12-11 13:25:00,,0821.3,4.99,0.00,21.8,20.2,00.0,30.7,23.6,06.7,0000.0,0002.38,0004.53,0001.84
2022-12-11 13:26:00,,0821.4,5.03,0.00,21.8,20.2,00.0,30.6,23.6,06.7,0000.0,0002.38,0004.47,0001.82
2022-12-11 13:27:00,,0821.3,4.98,0.00,21.8,20.2,00.0,30.6,23.6,06.6,0000.0,0002.38,0004.49,0001.82
2022-12-11 13:28:00,,0821.4,5.00,0.00,21.8,20.2,00.0,30.6,23.6,06.5,0000.0,0002.27,0004.30,0001.77
2022-12-11 13:29:00,,0821.4,5.02,0.00,21.8,20.1,00.0,30.6,23.5,06.5,0000.0,0002.17,0004.10,0001.71
2022-12-11 13:30:00,,0821.3,4.98,0.00,21.7,20.0,00.0,30.6,23.5,06.4,0000.0,0002.10,0003.86,0001.67
2022-12-11 13:31:00,,0821.2,5.02,0.00,21.7,20.1,00.0,30.6,23.5,06.4,0000.0,0002.03,0003.45,0001.63
2022-12-11 13:32:00,,0821.3,4.99,0.00,21.7,20.1,00.0,30.6,23.5,06.3,0000.0,0001.95,0003.29,0001.57
2022-12-11 13:33:00,,0821.3,4.98,0.00,21.7,20.1,00.0,30.6,23.5,06.3,0000.0,0001.92,0004.20,0001.52
2022-12-11 13:34:00,,0821.4,5.02,0.00,21.7,20.1,00.0,30.6,23.4,06.2,0000.0,0001.83,0004.52,0001.43
2022-12-11 13:35:00,,0821.3,4.98,0.00,21.7,20.0,00.0,30.6,23.4,06.2,0000.0,0001.73,0004.32,0001.33
2022-12-11 13:36:00,,0821.3,5.03,0.00,21.6,20.0,00.0,30.5,23.4,06.2,0000.0,0001.59,0003.89,0001.22
2022-12-11 13:37:00,,0821.4,4.97,0.00,21.6,20.0,00.0,30.5,23.4,06.2,0000.0,0001.43,0003.62,0001.11
2022-12-11 13:38:00,,0821.4,5.03,0.00,21.6,20.1,00.0,30.5,23.4,06.2,0000.0,0001.26,0003.30,0000.98
2022-12-11 13:39:00,,0821.4,4.98,0.00,21.6,20.1,00.0,30.5,23.4,06.8,0000.0,0001.19,0003.24,0000.91
2022-12-11 13:40:00,,0821.4,5.01,0.00,21.6,20.1,00.0,30.5,23.4,07.5,0000.0,0001.35,0003.45,0001.01
2022-12-11 13:41:00,,0821.4,4.99,0.00,21.6,20.1,00.0,30.5,23.4,07.7,0000.0,0001.59,0004.34,0001.21
2022-12-11 13:42:00,,0821.4,4.98,0.00,21.6,20.5,00.0,30.5,23.5,07.7,0000.0,0001.92,0005.15,0001.44
2022-12-11 13:43:00,,0821.3,5.02,0.00,21.7,21.5,00.0,30.5,23.7,07.5,0000.0,0002.22,0005.66,0001.64
2022-12-11 13:44:00,,0821.4,5.01,0.00,21.9,22.1,00.0,30.5,23.9,07.3,0000.0,0002.46,0005.47,0001.82
2022-12-11 13:45:00,,0821.3,4.99,0.00,21.9,21.8,00.0,30.6,23.9,07.3,0000.0,0002.74,0005.45,0002.04
2022-12-11 13:46:00,,0821.3,4.99,0.00,21.9,21.4,00.0,30.6,23.9,07.2,0000.0,0003.01,0007.08,0002.25
2022-12-11 13:47:00,,0821.2,4.99,0.00,21.9,21.2,00.0,30.6,23.8,06.9,0000.0,0003.18,0007.46,0002.40
2022-12-11 13:48:00,,0821.2,5.02,0.00,21.9,21.0,00.0,30.6,23.8,07.3,0000.0,0003.37,0008.02,0002.60
2022-12-11 13:49:00,,0821.2,5.00,0.00,21.9,20.9,00.0,30.7,23.8,07.4,0000.0,0003.59,0008.73,0002.88
2022-12-11 13:50:00,,0821.4,4.98,0.00,22.0,20.8,00.0,30.7,23.8,07.4,0000.0,0003.75,0008.99,0003.12
2022-12-11 13:51:00,,0821.3,4.99,0.00,22.0,20.7,00.0,30.7,23.8,07.5,0000.0,0003.84,0009.15,0003.20
2022-12-11 13:52:00,,0821.2,5.03,0.00,22.0,20.7,00.0,30.7,23.8,07.3,0000.0,0003.82,0008.83,0003.18
2022-12-11 13:53:00,,0821.2,4.99,0.00,22.0,20.7,00.0,30.7,23.8,06.9,0000.0,0003.69,0008.44,0003.11
2022-12-11 13:54:00,,0821.2,4.98,0.00,21.9,20.6,00.0,30.7,23.8,06.9,0000.0,0003.60,0008.24,0003.03
2022-12-11 13:55:00,,0821.2,5.03,0.00,21.9,20.5,00.0,30.7,23.8,06.6,0000.0,0003.49,0008.02,0002.89
2022-12-11 13:56:00,,0821.2,4.98,0.00,21.9,20.5,00.0,30.7,23.8,06.4,0000.0,0003.35,0007.78,0002.70
2022-12-11 13:57:00,,0821.2,4.99,0.00,21.9,20.4,00.0,30.7,23.7,06.4,0000.0,0003.22,0007.06,0002.52
2022-12-11 13:58:00,,0821.2,5.02,0.00,21.9,20.3,00.0,30.7,23.7,06.3,0000.0,0003.13,0006.69,0002.39
2022-12-11 13:59:00,,0821.2,4.98,0.00,21.9,20.3,00.0,30.7,23.7,06.7,0000.0,0002.92,0006.02,0002.29
